Weather History for KMQY - May, 2013

Change the Weather History Date:

Monday, May 27, 2013

  Actual Average Record
Temperature  
Mean Temperature 71 °F -  
Max Temperature 86 °F 76 °F 99 °F (2012)
Min Temperature 56 °F 61 °F 55 °F (2003)
Cooling Degree Days 6    
Growing Degree Days 21 (Base 50)    
Moisture  
Dew Point 59 °F    
Average Humidity 64    
Maximum Humidity 97    
Minimum Humidity 38    
Precipitation  
Precipitation 0.00 in - - ()
Sea Level Pressure  
Sea Level Pressure 30.13 in    
Wind  
Wind Speed 4 mph (SSW)    
Max Wind Speed 13 mph    
Max Gust Speed 21 mph    
Visibility 10 miles    
Events      
Averages and records for this station are not official NWS values.
T = Trace of Precipitation, MM = Missing Value Source: NWS Daily Summary

Daily Weather History Graph

Daily Weather History Graph

Search for Another Location

Airport or City:

Trip Planner

Search our weather history database for the weather conditions in past years. The results will help you decide how hot, cold, wet, or windy it might be!

Date:

Astronomy

May. 27, 2013 Rise Set
Actual Time 5:32 AM CDT 7:54 PM CDT
Civil Twilight 5:03 AM CDT 8:23 PM CDT
Nautical Twilight 4:27 AM CDT 9:00 PM CDT
Astronomical Twilight 3:47 AM CDT 9:39 PM CDT
Moon 10:35 PM CDT (5/27) 8:07 AM CDT (5/27)
Length of Visible Light 15h 20m
Length of Day
14h 21m
Waning Gibbous, 91% of the Moon is Illuminated
May 27
Waning Gibbous
May 31
Last Quarter
Jun 8
New
Jun 16
First Quarter
Jun 23
Full

Hourly Weather History & Observations

Time (CDT) Temp. Heat Index Dew Point Humidity Pressure Visibility Wind Dir Wind Speed Gust Speed Precip Events Conditions
12:56 AM 61.0 °F - 59.0 °F 93% 30.16 in 10.0 mi Calm Calm - N/A   Clear
1:56 AM 59.9 °F - 57.9 °F 93% 30.16 in 10.0 mi Calm Calm - N/A   Clear
2:56 AM 59.9 °F - 56.8 °F 90% 30.16 in 10.0 mi Calm Calm - N/A   Clear
3:56 AM 57.9 °F - 56.8 °F 96% 30.16 in 10.0 mi Calm Calm - N/A   Clear
4:56 AM 56.8 °F - 55.9 °F 97% 30.17 in 10.0 mi Calm Calm - N/A   Clear
5:56 AM 57.9 °F - 55.9 °F 93% 30.19 in 10.0 mi SSE 3.5 mph - N/A   Clear
6:56 AM 63.0 °F - 57.9 °F 84% 30.20 in 10.0 mi SE 3.5 mph - N/A   Clear
7:56 AM 68.0 °F - 59.0 °F 73% 30.19 in 10.0 mi South 5.8 mph - N/A   Clear
8:56 AM 73.9 °F - 59.9 °F 61% 30.18 in 10.0 mi South 6.9 mph - N/A   Clear
9:56 AM 79.0 °F - 61.0 °F 54% 30.17 in 10.0 mi SW 6.9 mph - N/A   Clear
10:56 AM 81.9 °F 82.5 °F 61.0 °F 49% 30.15 in 10.0 mi SSW 8.1 mph - N/A   Clear
11:56 AM 82.9 °F 82.6 °F 57.9 °F 42% 30.15 in 10.0 mi SSW 9.2 mph 17.3 mph N/A   Clear
12:56 PM 83.8 °F 83.1 °F 56.8 °F 40% 30.13 in 10.0 mi SSW 6.9 mph 20.7 mph N/A   Clear
1:56 PM 86.0 °F 85.4 °F 59.0 °F 40% 30.12 in 10.0 mi SSW 12.7 mph 19.6 mph N/A   Clear
2:56 PM 84.9 °F 84.4 °F 59.0 °F 41% 30.11 in 10.0 mi SW 6.9 mph 18.4 mph N/A   Partly Cloudy
3:56 PM 86.0 °F 85.0 °F 57.9 °F 38% 30.09 in 10.0 mi SSW 12.7 mph 19.6 mph N/A   Partly Cloudy
4:56 PM 83.8 °F 83.3 °F 57.9 °F 41% 30.09 in 10.0 mi SW 9.2 mph - N/A   Partly Cloudy
5:56 PM 82.9 °F 83.2 °F 59.9 °F 46% 30.07 in 10.0 mi SW 6.9 mph - N/A   Clear
6:56 PM 81.0 °F 81.3 °F 59.0 °F 47% 30.08 in 10.0 mi SW 5.8 mph - N/A   Clear
7:56 PM 79.0 °F - 59.0 °F 50% 30.07 in 10.0 mi SW 3.5 mph - N/A   Clear
8:56 PM 75.9 °F - 59.0 °F 56% 30.08 in 10.0 mi SSW 3.5 mph - N/A   Clear
9:56 PM 72.0 °F - 59.0 °F 64% 30.08 in 10.0 mi South 5.8 mph - N/A   Clear
10:56 PM 70.9 °F - 59.0 °F 66% 30.09 in 10.0 mi South 3.5 mph - N/A   Clear
11:56 PM 70.0 °F - 59.9 °F 70% 30.08 in 10.0 mi South 5.8 mph - N/A   Clear